カタログに戻る

RADIO 8

運用中アマチュア無線PO
NORAD 12998·PAYLOAD·🇷🇺 Russia

打ち上げ Dec 17, 1981 から Plesetsk Cosmodrome

Loading…

次のパス (今後24時間)

TLE

最新Source: Space-Track

元期: Sep 14, 2026, 00:14 UTC

1 12998U 81120B   26257.01023669 -.00000056  00000-0 -78239-3 0  9995
2 12998  82.9536  72.8146 0018741 302.6332 217.6154 12.03199915964849

AllMySatでRADIO 8をリアルタイム追跡

Download on the App Store